Simultaneous Nadir Overpasses (SNOs) Predictions

Prediction of SNOs between GOES-15 and TERRA Satellite Orbit:

Table of predicted SNOs for the next 14.0 days since TLE Epoch: 8/30/2024
Index Date Time (GOES-15) GOES-15 Lat,Lon TERRA Lat,Lon Distance(km) Time Diff (sec)
1 08/31/2024 05:32:07 -0.21, 61.46 -0.48, 62.84 156.86 80
2 08/31/2024 17:49:26 0.23, 61.58 -0.51, 57.98 408.91 80
3 09/02/2024 17:34:19 0.23, 61.56 0.38, 62.27 80.86 80
4 09/03/2024 05:51:28 -0.25, 61.42 0.59, 57.44 452.83 80
5 09/05/2024 05:36:20 -0.24, 61.40 -0.30, 61.73 37.35 80
6 09/07/2024 17:35:49 0.25, 61.51 0.16, 61.18 38.16 80
7 09/09/2024 17:20:40 0.24, 61.50 1.10, 65.47 451.56 80
8 09/10/2024 05:37:48 -0.26, 61.38 -0.11, 60.65 82.27 80
9 09/12/2024 05:22:37 -0.25, 61.38 -0.99, 64.96 406.89 80
10 09/12/2024 17:39:54 0.27, 61.50 0.00, 60.10 158.70 80
